Regional Weather Roundup
Issued by NWS

Home | Current Version | Previous Version | Graphics & Text | Print | Product List | Glossary On
Versions: 1 2 3 4 5 6 7 8 9 10 11 12 13 14 15 16 17 18 19 20 21 22 23 24 25 26 27
000
ASUS45 KTFX 220710
RWRMT
MONTANA REGIONAL WEATHER ROUNDUP
NATIONAL WEATHER SERVICE GREAT FALLS MT
100 AM MDT FRI SEP 22 2017

NOTE: "FAIR" INDICATES FEW OR NO CLOUDS BELOW 12000 FEET WITH NO
SIGNIFICANT WEATHER AND/OR OBSTRUCTIONS TO VISIBILITY.

MTZ001>007-043-220800-
WEST OF THE DIVIDE

CITY           SKY/WX    TMP DP  RH WIND       PRES   REMARKS
KALISPELL      CLEAR     42  33  70 N10       29.95S
MISSOULA       CLOUDY    40  36  86 CALM      29.92S
BUTTE          LGT RAIN  36  34  92 CALM      29.89S
MULLAN PASS    PTCLDY    31  29  92 CALM      29.91F FOG
ANACONDA         N/A     39  32  75 N8G18     29.91R
DEER LODGE       N/A     41  32  70 N9        29.95R
EUREKA           N/A     39  39 100 CALM      30.00S
HAMILTON         N/A     39  34  81 CALM      29.89R
LIBBY            N/A     37  37 100 SE3       29.99R
$$

MTZ008-052>055-220800-
SOUTHWEST MONTANA

CITY           SKY/WX    TMP DP  RH WIND       PRES   REMARKS
BOZEMAN        LGT RAIN  40  38  93 W7        29.89S
DILLON         LGT RAIN  37  33  85 N14       29.84F WCI  28
W YELLOWSTONE  LGT SNOW  32  32 100 W10G17    29.82R WCI  24
ENNIS          FLURRIES  34  34 100 N21G28    29.87F WCI  22
THREE FORKS      N/A     41  37  85 N6        29.90S
$$

MTZ009-010-012-014-046-048-049-054-220800-
EAST SLOPES AND CENTRAL MONTANA

CITY           SKY/WX    TMP DP  RH WIND       PRES   REMARKS
CUT BANK       MOCLDY    33  29  85 N5        30.05R
GREAT FALLS    CLOUDY    41  29  62 NE15G23   30.02R
MALMSTROM AFB  CLOUDY    41  31  68 NE18      30.02R
HELENA         CLOUDY    43  35  73 N17G25    29.94R
BOWMANS CRNR   CLOUDY    36  30  78 N21       29.98R WCI  25
CHOTEAU          N/A     37  30  75 N14       30.03S WCI  29
FAIRFIELD      CLOUDY    39  29  69 N10       30.02R WCI  32
POWER          CLOUDY    38  29  69 N16G22    30.01R WCI  30
RAYNESFORD     LGT RAIN  42  32  68 W6        29.99R
ULM            MOCLDY    42  30  63 NE17G25   30.01R
$$

MTZ011-013-016-021-045-047-050-051-220800-
NORTH CENTRAL MONTANA

CITY           SKY/WX    TMP DP  RH WIND       PRES   REMARKS
HAVRE          CLOUDY    40  32  73 SW6       30.04R
LEWISTOWN      LGT RAIN  40  37  89 E16       29.98R
N BAR RANCH    LGT RAIN  37  34  87 E12       30.00F WCI  30
CHINOOK          N/A     39  30  70 W3        30.03R
DENTON           N/A     44  34  68 E8        29.97R
GEYSER         CLOUDY    41  31  68 MISG      29.99R
GRASS RANGE    LGT RAIN  43  36  77 NE10      29.96R
JUDITH GAP     LGT RAIN  37  34  90 SE3       29.97R
WINIFRED       CLOUDY    43  34  70 E9        29.99R
$$

MTZ017>020-022>027-061-062-220800-
NORTHEAST MONTANA

CITY           SKY/WX    TMP DP  RH WIND       PRES   REMARKS
GLASGOW        CLOUDY    48  32  53 NE13      29.97R
JORDAN           N/A     47  38  71 N12       29.98R
SIDNEY         LGT RAIN  50  40  68 N8        29.92R
WOLF POINT     LGT RAIN  51  34  52 N15       29.97R
MALTA          CLOUDY    45  32  61 CALM      30.02R
POPLAR           N/A     50  34  53 N9        29.97R
$$

MTZ028>42-056>058-220800-
SOUTHCENTRAL AND SOUTHEAST MONTANA

CITY           SKY/WX    TMP DP  RH WIND       PRES   REMARKS
BAKER          CLOUDY    52  33  48 N13       29.87S
BILLINGS       CLOUDY    40  39  97 N13       29.94S FOG
LIVINGSTON     LGT SNOW  33  33 100 E18G26    29.90S VSB 3/4 WCI  22
MILES CITY     CLOUDY    50  36  58 N8        29.89R
BIG TIMBER     FOG       32  32 100 E10       29.97S VSB 1/4 WCI  24
HARLOWTON      RAIN      37  34  90 MISG      29.96F
LAUREL           N/A     39  37  93 N10       29.96R FOG
$$

REGIONAL REPORTS...DAKOTAS

CITY           SKY/WX    TMP DP  RH WIND       PRES   REMARKS
WILLISTON      MOCLDY    50  38  63 N14       29.90F
MINOT          MOCLDY    51  39  63 NW14      29.87F
DICKINSON      PTCLDY    49  37  63 N12G21    29.83F
BEACH          MOCLDY    46  37  71 N12       29.90F
CROSBY           N/A     45  39  81 NW8       29.97R
TIOGA            N/A     50  37  62 N13       29.91F
WATFORD CITY   DRIZZLE   46  41  81 NE7       29.87F
BISMARCK       CLEAR     56  45  66 N13       29.79F
GRAND FORKS    PTCLDY    60  58  92 N7        29.73S
FARGO          CLEAR     72  69  90 SE8       29.69F
BUFFALO SD       N/A     52  35  52 N17       29.77R
$$

REGIONAL REPORTS...WYOMING/IDAHO/WASHINGTON

CITY           SKY/WX    TMP DP  RH WIND       PRES   REMARKS
GILLETTE       CLOUDY    41  34  76 N9        29.85S
SHERIDAN       CLOUDY    46  41  82 W8        29.92R
BUFFALO WY     CLOUDY    45  34  65 NW8       29.91S
CODY           LGT RAIN  37  33  85 N12G24    29.90R WCI  29
IDAHO FALLS    CLOUDY    41  39  93 SW9       29.82R
SALMON         CLOUDY    44  37  76 CALM      29.83R
BOISE          MOCLDY    47  37  68 NW12      29.83R
SPOKANE        MOCLDY    41  40  96 N5        29.95S
$$

REGIONAL REPORTS...ALBERTA

CITY           SKY/WX    TMP DP  RH WIND       PRES   REMARKS
EDMONTON       CLOUDY    37  37 100 N6        30.10S
CALGARY        CLOUDY    36  32  87 N9        30.07F FOG     WCI  29
LETHBRIDGE     MOCLDY    37  32  81 NW12      30.06R WCI  30
MEDICINE HAT   MOCLDY    39  34  81 W9        30.02R
$$

REGIONAL REPORTS...SASKATCHEWAN

CITY           SKY/WX    TMP DP  RH WIND       PRES   REMARKS
SWIFT CURRENT  MOCLDY    32  28  86 SW6       29.99R WCI  26
REGINA         CLOUDY    34  30  86 SW3       29.97R
SASKATOON      PTCLDY    34  32  93 SW5       29.97R
$$




USA.gov is the U.S. government's official web portal to all federal, state and local government web resources and services.